EDT,Max TemperatureF,Mean TemperatureF,Min TemperatureF,Max Dew PointF,MeanDew PointF,Min DewpointF,Max Humidity, Mean Humidity, Min Humidity, Max Sea Level PressureIn, Mean Sea Level PressureIn, Min Sea Level PressureIn, Max VisibilityMiles, Mean VisibilityMiles, Min VisibilityMiles, Max Wind SpeedMPH, Mean Wind SpeedMPH, Max Gust SpeedMPH,PrecipitationIn, CloudCover, Events, WindDirDegrees
2012-10-1,71,60,48,58,50,43,100,75,39,29.98,29.94,29.88,10,8,5,12,3,18,0.01,2,Rain,263
2012-10-2,75,68,62,73,67,57,100,90,73,29.98,29.95,29.91,10,7,1,14,4,40,0.41,8,Rain,124
2012-10-3,84,77,69,75,71,66,100,92,62,30.13,30.03,29.96,10,4,0,9,1,,0.11,4,Fog-Rain,234
2012-10-4,78,70,61,72,68,61,100,88,74,30.14,30.10,30.05,10,7,5,8,2,,0.00,4,Rain,246
2012-10-5,81,69,57,61,57,54,100,74,40,30.11,30.05,29.97,10,8,4,10,5,,0.01,0,,270
2012-10-6,82,66,51,62,56,45,97,70,45,30.03,29.90,29.79,10,9,4,17,5,22,0.00,2,,274
2012-10-7,53,48,44,47,45,41,100,87,69,30.15,30.10,30.02,10,7,2,10,3,,0.15,6,Rain,345
2012-10-8,53,46,39,45,42,38,100,86,59,30.28,30.21,30.14,10,6,0,9,3,,0.01,3,Fog-Rain,332
2012-10-9,61,55,50,57,52,45,94,87,76,30.17,30.12,30.04,10,9,4,12,8,16,0.01,8,Rain,17
2012-10-10,66,60,54,57,54,38,100,84,47,30.04,29.96,29.86,10,7,0,15,5,23,0.00,6,Fog,284
2012-10-11,60,50,37,40,35,31,93,62,35,30.26,30.19,30.06,10,10,10,22,9,29,0.00,0,,289
2012-10-12,64,50,37,48,37,29,97,69,39,30.43,30.21,30.13,10,10,5,17,10,31,0.00,0,,304
2012-10-13,57,44,32,44,31,26,82,57,30,30.52,30.45,30.33,10,10,10,8,5,,0.00,0,,44
2012-10-14,73,62,53,58,51,45,86,69,38,30.30,30.16,29.97,10,10,9,10,5,22,0.00,0,,209
2012-10-15,73,66,59,61,59,58,96,83,57,29.96,29.78,29.68,10,8,2,12,6,20,0.17,6,Rain,249
2012-10-16,62,52,41,57,43,39,96,72,43,29.93,29.83,29.73,10,10,8,16,8,23,0.00,1,,296
2012-10-17,62,48,36,44,39,35,97,77,42,30.03,29.98,29.91,10,9,6,6,0,,0.00,0,,195
2012-10-18,70,54,39,64,50,39,97,78,45,30.01,29.96,29.86,10,9,6,15,4,22,0.00,3,,129
2012-10-19,73,68,64,65,63,61,100,90,76,29.87,29.76,29.66,10,8,0,15,8,23,0.45,6,Fog-Rain,161
2012-10-20,69,56,43,63,51,42,100,86,43,29.89,29.73,29.68,10,5,0,13,2,20,0.01,1,Fog,287
2012-10-21,66,50,37,44,41,37,100,72,39,30.10,30.02,29.91,10,10,10,13,5,23,0.00,0,,274
2012-10-22,68,54,39,46,42,38,96,71,36,30.17,30.12,30.09,10,10,10,16,7,22,0.00,0,,283
2012-10-23,73,58,43,54,49,41,97,72,44,30.14,30.10,30.06,10,10,7,8,2,,0.00,1,,240
2012-10-24,78,64,53,59,55,51,96,78,52,30.17,30.11,30.06,10,9,7,10,2,,0.00,2,,87
2012-10-25,64,62,60,58,57,57,93,87,78,30.24,30.22,30.17,10,8,2,8,5,,0.00,8,,84
2012-10-26,73,63,54,58,56,53,97,83,55,30.21,30.15,30.08,10,10,5,12,4,,0.00,3,,75
2012-10-27,66,60,55,55,52,48,97,77,54,30.06,29.95,29.86,10,10,10,14,7,20,0.01,0,,53
2012-10-28,57,55,53,54,51,48,94,83,72,29.84,29.70,29.54,10,9,4,18,13,37,0.51,7,Rain,32
2012-10-29,61,54,48,59,52,46,100,93,83,31.12,28.87,28.13,9,3,1,29,20,44,4.93,8,Rain,336
2012-10-30,48,45,42,46,41,39,96,84,74,29.50,29.33,28.74,10,10,6,17,8,34,0.22,8,Rain,180
2012-10-31,52,46,39,41,38,36,93,78,56,29.63,29.56,29.49,10,10,10,14,2,23,0.01,6,,255